Wind_Speed
41 41 40 39 38 37 37 37 37 36 35 35 35 34 34 33 33 32 31 31 30 29 28 27 26 24 24 23 22 21 21 20 20 20 19 19 19 19 20 19 19 19 19
43 42 42 41 40 39 39 39 39 38 37 37 37 36 36 35 35 34 34 33 32 31 30 29 28 27 26 25 24 23 23 22 21 21 21 21 21 21 21 21 21 20 20
45 44 44 44 43 42 41 41 41 40 39 39 39 38 37 37 35 36 35 35 34 34 33 31 30 29 28 27 26 25 25 24 23 23 23 22 23 23 23 23 22 22 22
47 47 46 46 46 45 45 44 43 42 41 41 41 41 39 39 38 37 37 36 36 36 35 34 33 32 31 29 28 27 26 26 25 25 25 25 24 24 24 23 23 23 23
49 49 48 48 48 48 47 47 46 45 44 43 42 43 42 41 40 39 39 38 38 37 37 36 35 34 33 32 31 30 29 28 27 27 27 26 26 25 25 25 25 25 25
49 50 50 50 50 50 49 48 48 47 46 45 45 44 43 43 42 42 41 40 40 39 39 38 37 36 35 34 34 33 32 31 30 30 29 29 28 27 27 27 26 26 26
50 51 52 52 51 51 51 49 49 49 48 47 47 46 45 44 43 43 42 41 42 41 41 40 39 39 38 38 37 36 35 34 33 32 32 31 30 30 29 29 28 28 27
50 51 52 54 53 53 53 52 51 50 49 49 48 47 47 47 45 44 44 43 43 43 42 42 42 41 40 39 39 38 37 36 35 34 34 33 33 32 31 31 30 29 29
51 51 52 53 54 54 53 54 53 52 51 50 50 49 48 48 47 47 46 45 44 44 43 43 43 42 41 41 40 39 38 37 37 36 35 35 34 34 33 33 32 32 31
50 52 52 53 54 55 54 54 54 54 53 52 51 51 50 49 49 48 47 47 46 45 44 44 43 43 43 42 42 41 40 39 39 38 37 37 36 36 35 34 34 34 33
49 49 51 52 53 54 55 55 55 55 54 53 53 52 51 50 50 50 49 48 47 47 46 45 44 44 44 44 43 43 42 41 41 40 39 38 38 38 37 37 36 35 35
48 49 49 50 52 53 54 55 56 56 55 55 54 53 53 51 50 51 50 49 49 49 47 46 45 46 46 45 44 44 43 42 42 41 41 40 39 39 38 38 38 38 37
47 49 49 50 52 53 54 55 55 56 56 55 55 54 54 53 52 53 52 51 51 50 49 48 47 47 47 46 45 44 44 44 43 43 42 41 40 40 40 40 40 40 40
47 48 49 50 52 53 53 54 55 55 56 56 56 55 55 55 55 54 53 52 52 52 51 50 49 48 49 48 47 46 46 45 44 44 43 42 41 41 41 41 41 41 41
46 48 50 50 51 52 53 53 53 54 54 54 55 56 55 55 55 55 54 52 52 52 52 51 50 49 49 49 48 48 47 46 45 45 45 44 44 43 43 42 42 43 43
47 47 49 50 50 52 53 53 53 54 54 54 54 55 55 55 54 54 54 53 53 53 52 51 50 50 50 49 49 49 48 47 47 47 46 46 45 45 45 44 43 43 44
46 47 48 49 50 50 52 53 54 55 55 54 54 54 55 55 54 55 54 53 53 53 53 52 51 51 52 51 50 50 50 49 49 48 47 47 47 46 46 45 45 45 45
45 46 47 48 49 50 51 52 53 54 54 54 54 54 54 56 55 55 54 53 53 53 53 52 52 53 53 52 51 51 52 51 51 50 49 49 49 48 48 47 46 45 45
44 44 46 47 48 49 50 51 52 52 53 53 53 54 55 56 55 55 55 54 53 54 53 53 53 54 53 52 52 52 52 52 52 52 51 50 50 49 49 48 47 47 46
43 44 45 46 46 47 49 50 51 51 51 52 54 54 55 56 56 55 55 55 54 54 53 54 54 54 54 53 53 53 52 52 52 52 52 52 51 51 49 49 49 49 48
40 41 42 44 45 46 47 49 50 50 50 51 52 54 55 56 56 56 56 56 55 54 55 55 54 54 54 54 53 54 53 53 52 53 53 52 52 51 51 50 50 50 50
38 38 39 41 43 44 46 48 49 50 50 50 52 53 55 56 56 57 58 57 56 55 55 55 54 54 54 55 55 54 54 55 54 54 54 53 52 51 52 52 52 52 52
36 37 38 39 41 42 43 45 47 48 49 50 52 54 55 55 56 58 59 59 58 57 56 55 54 54 54 55 56 56 56 57 56 56 55 55 55 54 53 53 54 54 55
35 35 35 37 39 39 41 43 45 47 48 50 51 54 55 55 56 57 58 59 59 58 57 57 56 56 56 57 58 58 58 58 58 58 58 57 57 56 56 56 56 56 57
35 34 35 36 37 38 40 42 44 45 47 49 52 54 54 56 56 57 58 59 59 59 59 59 58 58 58 58 59 59 59 59 59 59 60 59 58 58 58 59 59 59 59
35 35 35 36 36 38 39 40 42 44 45 47 50 52 53 55 57 58 58 59 59 60 61 60 59 59 59 59 60 60 60 60 60 60 60 60 60 60 60 60 61 60 60
Wind_Direction
246 246 245 244 244 244 244 244 243 242 242 243 243 243 243 244 244 244 245 244 243 242 243 244 245 244 246 248 250 253 255 257 259 261 262 264 267 269 271 273 275 277 278
246 246 246 245 244 244 245 244 243 243 242 243 243 243 243 244 245 245 244 244 243 243 242 243 244 244 246 248 251 254 255 256 258 261 263 264 266 268 270 272 274 277 278
247 247 247 245 245 245 244 245 244 244 244 244 244 244 243 243 244 245 244 244 244 244 244 243 243 244 245 247 250 253 255 257 259 262 264 265 267 268 270 271 273 275 276
248 248 247 247 246 246 245 244 245 244 245 245 245 244 244 243 243 244 244 245 246 246 245 245 244 244 246 248 250 252 255 257 259 262 263 265 267 268 269 271 273 274 275
248 247 247 247 247 246 245 245 244 243 244 245 245 245 244 244 243 243 244 244 245 245 245 245 245 246 248 249 250 251 254 257 260 262 262 263 266 267 269 271 273 275 275
248 248 248 247 247 245 245 245 244 244 245 246 246 245 245 244 244 244 244 243 243 244 244 245 246 246 248 250 251 253 255 258 261 262 263 263 265 266 268 271 272 274 275
249 249 248 247 246 245 245 245 245 244 244 245 245 245 245 244 245 244 244 244 243 244 244 245 246 248 248 249 251 253 256 258 261 263 264 264 265 266 269 270 271 273 274
251 250 249 247 247 246 245 244 245 245 244 244 244 244 244 244 243 244 243 244 245 245 245 246 246 248 249 249 251 252 255 257 259 261 263 264 265 267 269 270 271 271 272
251 250 248 246 246 245 244 244 244 244 244 244 244 244 244 245 244 243 244 243 245 246 245 246 247 248 249 250 251 253 254 256 258 260 262 263 264 266 268 269 270 271 272
254 252 250 247 245 245 244 243 243 243 244 244 245 244 244 244 244 243 244 243 244 246 246 246 247 248 248 250 251 253 254 255 257 259 260 262 263 265 266 267 268 270 271
254 252 251 248 246 245 244 243 243 242 243 244 245 244 244 244 243 243 243 244 244 245 246 247 247 248 249 250 251 253 254 255 257 258 259 261 263 263 264 265 266 267 269
255 253 251 250 247 245 244 243 243 242 243 244 244 244 244 244 243 243 243 244 245 246 247 248 249 250 250 250 252 253 255 256 257 258 259 260 262 262 263 264 264 266 267
256 254 252 251 249 246 244 243 243 243 243 243 243 243 244 244 244 243 243 244 245 246 247 248 249 250 251 250 252 253 255 256 256 257 257 258 260 261 262 263 264 265 266
257 255 253 251 249 247 246 244 244 243 243 242 242 243 244 243 244 244 243 244 245 245 246 247 249 251 252 251 251 253 254 255 256 257 256 258 259 261 262 263 264 264 265
256 255 253 251 249 247 246 245 244 243 242 242 242 242 242 242 243 243 243 244 245 246 247 247 249 250 251 251 251 253 253 254 256 256 257 258 259 261 262 264 264 265 266
256 255 253 251 249 248 247 245 244 243 242 241 241 241 241 241 241 242 242 244 245 247 248 247 248 249 250 250 251 252 253 254 255 256 257 258 259 261 263 264 264 265 266
256 255 253 251 249 248 246 245 244 242 241 240 240 240 240 240 240 241 242 244 246 247 248 248 248 249 250 250 251 252 253 254 254 256 258 259 259 261 262 263 264 265 265
255 253 252 251 249 247 246 244 243 242 241 240 239 240 239 239 240 241 242 244 246 247 248 248 249 250 251 251 251 252 253 254 254 256 257 258 259 261 261 263 264 264 265
255 253 252 251 249 247 245 244 243 242 242 240 239 240 240 240 240 241 242 244 246 247 247 249 250 251 251 252 251 252 253 254 255 256 257 258 260 261 261 262 263 264 265
255 254 252 250 248 246 244 243 243 242 242 242 241 241 241 241 242 242 243 244 245 247 248 249 250 251 251 252 252 252 253 254 255 256 257 258 260 261 261 262 263 264 265
255 254 251 248 247 245 244 243 243 242 242 242 242 243 242 241 242 243 243 244 245 247 248 250 251 251 252 253 253 253 253 254 255 257 258 259 260 261 262 263 263 264 266
253 250 248 247 246 245 244 243 243 243 242 242 243 244 243 242 242 244 244 244 245 246 248 249 251 252 253 254 254 254 254 254 256 258 258 259 260 261 263 263 263 265 266
252 249 248 246 245 244 245 245 244 243 244 244 244 244 243 243 244 245 245 245 246 247 248 250 251 252 253 254 255 255 255 255 257 258 258 259 261 262 263 263 263 265 266
252 249 248 246 245 244 245 246 246 246 246 246 245 245 245 246 245 245 245 246 246 247 249 250 253 254 254 255 256 256 256 256 257 257 258 259 260 262 263 263 263 265 266
251 250 250 248 247 247 248 248 247 247 247 247 246 246 247 247 247 247 247 247 247 248 249 251 253 253 254 255 255 255 256 256 257 258 259 260 261 262 263 264 264 265 265
252 251 251 250 249 249 249 249 249 249 248 248 247 248 249 249 248 249 249 249 249 249 250 252 253 254 254 255 255 255 256 257 258 259 260 261 262 262 263 265 265 265 266
Height
5754 5757 5760 5763 5766 5768 5771 5774 5776 5779 5782 5784 5786 5789 5791 5793 5795 5797 5800 5802 5804 5806 5807 5809 5810 5812 5813 5814 5815 5816 5817 5818 5818 5819 5819 5820 5820 5820 5819 5819 5819 5819 5819
5744 5747 5750 5753 5756 5759 5762 5765 5767 5770 5773 5776 5778 5781 5783 5786 5788 5790 5792 5795 5797 5799 5801 5803 5805 5806 5808 5809 5810 5811 5812 5813 5814 5814 5815 5815 5815 5815 5815 5815 5815 5814 5814
5733 5736 5740 5743 5746 5749 5752 5755 5758 5761 5764 5767 5770 5772 5775 5778 5780 5783 5785 5787 5790 5792 5794 5796 5798 5800 5802 5803 5804 5806 5807 5807 5808 5809 5809 5810 5810 5810 5810 5810 5810 5809 5809
5722 5725 5729 5732 5735 5738 5741 5745 5748 5751 5754 5757 5760 5763 5766 5769 5772 5775 5777 5779 5782 5784 5787 5789 5791 5793 5795 5797 5798 5800 5801 5801 5802 5803 5804 5804 5804 5804 5805 5805 5804 5804 5804
5710 5714 5717 5720 5723 5726 5730 5733 5737 5740 5744 5747 5751 5754 5757 5760 5763 5766 5769 5771 5774 5777 5779 5782 5784 5786 5788 5790 5791 5793 5794 5795 5796 5797 5797 5798 5798 5798 5799 5799 5799 5798 5798
5698 5701 5705 5708 5711 5714 5718 5722 5726 5729 5733 5737 5740 5744 5747 5750 5753 5757 5760 5762 5765 5768 5771 5773 5776 5778 5781 5782 5784 5786 5787 5788 5789 5790 5791 5791 5791 5792 5792 5792 5792 5792 5792
5685 5688 5691 5695 5698 5702 5706 5710 5714 5718 5722 5725 5729 5733 5737 5740 5743 5747 5750 5753 5756 5759 5762 5765 5767 5770 5772 5774 5776 5778 5780 5781 5782 5783 5783 5784 5784 5785 5785 5785 5785 5786 5786
5672 5675 5678 5682 5685 5689 5693 5698 5702 5706 5710 5714 5718 5722 5726 5730 5733 5737 5740 5743 5746 5749 5753 5756 5758 5761 5763 5765 5767 5769 5771 5773 5774 5775 5776 5776 5777 5777 5778 5778 5778 5778 5779
5659 5661 5664 5668 5672 5676 5681 5685 5690 5694 5699 5703 5707 5711 5715 5719 5723 5727 5730 5733 5737 5740 5743 5746 5749 5751 5754 5756 5758 5760 5762 5764 5765 5766 5767 5768 5769 5769 5770 5770 5770 5771 5771
5645 5648 5651 5654 5658 5663 5668 5672 5677 5682 5686 5690 5695 5699 5704 5708 5712 5716 5720 5723 5726 5730 5733 5736 5739 5742 5744 5747 5749 5751 5753 5755 5756 5757 5758 5759 5760 5761 5761 5762 5762 5763 5763
5632 5634 5637 5641 5645 5649 5654 5659 5664 5668 5673 5678 5682 5687 5691 5696 5700 5704 5709 5713 5716 5719 5723 5726 5728 5731 5734 5737 5739 5741 5743 5745 5746 5747 5749 5750 5751 5751 5752 5753 5754 5754 5754
5619 5621 5624 5627 5630 5635 5640 5645 5650 5655 5660 5665 5670 5674 5679 5683 5688 5692 5697 5701 5705 5709 5712 5715 5718 5720 5723 5726 5729 5731 5733 5735 5736 5738 5739 5740 5741 5742 5743 5743 5744 5745 5745
5606 5608 5610 5613 5617 5621 5625 5630 5635 5641 5646 5651 5656 5661 5666 5671 5675 5680 5685 5689 5693 5697 5700 5704 5706 5709 5712 5715 5718 5720 5723 5724 5726 5727 5729 5730 5731 5732 5733 5734 5734 5735 5736
5593 5594 5597 5600 5603 5607 5611 5616 5621 5626 5631 5637 5642 5648 5653 5658 5663 5667 5672 5676 5680 5684 5688 5692 5695 5698 5701 5704 5707 5709 5712 5714 5715 5717 5718 5720 5721 5722 5723 5724 5724 5725 5726
5579 5581 5583 5586 5589 5592 5596 5601 5606 5612 5617 5622 5628 5633 5639 5644 5649 5654 5659 5663 5668 5672 5676 5680 5683 5686 5689 5692 5695 5698 5700 5703 5705 5706 5708 5709 5711 5712 5712 5713 5714 5715 5716
5566 5567 5569 5571 5574 5578 5582 5587 5592 5597 5603 5608 5614 5619 5625 5631 5636 5641 5646 5651 5655 5660 5664 5668 5671 5674 5677 5680 5683 5686 5689 5691 5693 5695 5697 5698 5700 5701 5702 5703 5704 5704 5705
5552 5553 5555 5557 5560 5564 5568 5572 5577 5582 5588 5594 5600 5606 5611 5617 5623 5628 5633 5638 5642 5647 5651 5655 5659 5662 5665 5668 5671 5674 5676 5679 5681 5683 5685 5687 5688 5689 5691 5692 5693 5693 5694
5538 5540 5541 5544 5547 5550 5554 5559 5563 5568 5574 5580 5586 5592 5598 5604 5609 5615 5620 5625 5629 5634 5638 5642 5646 5649 5652 5655 5658 5661 5664 5666 5669 5671 5673 5675 5676 5677 5679 5680 5681 5682 5682
5525 5526 5528 5531 5534 5537 5541 5546 5550 5555 5561 5567 5573 5579 5585 5590 5596 5601 5606 5611 5615 5620 5624 5628 5632 5636 5639 5642 5645 5648 5651 5653 5656 5658 5660 5662 5664 5665 5667 5668 5669 5670 5671
5513 5514 5516 5519 5522 5525 5529 5533 5538 5543 5549 5554 5560 5566 5572 5577 5583 5588 5593 5598 5602 5607 5611 5615 5619 5622 5625 5628 5632 5635 5638 5640 5643 5645 5647 5649 5651 5652 5654 5655 5656 5657 5658
5501 5502 5504 5507 5510 5514 5518 5522 5526 5531 5536 5542 5547 5553 5558 5564 5569 5574 5579 5584 5589 5593 5597 5601 5605 5608 5611 5615 5618 5621 5624 5627 5629 5632 5634 5636 5638 5640 5640 5642 5643 5644 5645
5491 5492 5494 5497 5500 5503 5506 5510 5514 5519 5524 5529 5534 5539 5544 5550 5555 5560 5565 5570 5575 5579 5583 5587 5591 5595 5598 5601 5604 5607 5610 5613 5616 5619 5620 5622 5624 5625 5627 5628 5629 5630 5631
5481 5482 5484 5487 5490 5493 5495 5499 5503 5507 5512 5517 5521 5526 5531 5536 5541 5546 5550 5555 5560 5564 5569 5574 5577 5581 5584 5587 5590 5593 5595 5598 5601 5603 5605 5607 5609 5611 5612 5613 5614 5615 5616
5472 5474 5475 5477 5480 5482 5485 5488 5491 5495 5500 5504 5508 5513 5518 5522 5527 5531 5536 5540 5545 5550 5555 5559 5564 5567 5569 5571 5574 5577 5579 5582 5585 5587 5589 5592 5594 5595 5596 5597 5598 5599 5600
5464 5465 5466 5468 5470 5473 5475 5478 5480 5483 5487 5491 5495 5500 5504 5508 5513 5517 5521 5526 5531 5535 5538 5543 5547 5550 5553 5556 5558 5561 5563 5566 5569 5572 5573 5576 5578 5579 5580 5581 5582 5583 5583
5454 5455 5457 5459 5460 5463 5465 5467 5469 5472 5476 5479 5483 5486 5490 5494 5498 5501 5505 5510 5515 5519 5523 5527 5530 5534 5536 5539 5542 5544 5547 5550 5552 5555 5557 5559 5561 5561 5564 5565 5565 5566 5567